| time (UTC) | temp C | wind direction | speed KPH | gust KPH | rain 1hr cm | rain 24hr cm | rain mn cm | humidity % | barometer mb |
| 20260831234319 | 31 | 69 | 1.6 | 4.8 | 0.00 | 0.00 | 0.00 | 67 | 1018.5 |
| 20260831233325 | 31 | 94 | 1.6 | 4.8 | 0.00 | 0.00 | 0.00 | 67 | 1018.6 |
| 20260831232322 | 31 | 127 | 3.2 | 6.4 | 0.00 | 0.00 | 0.00 | 68 | 1018.6 |
| 20260831231319 | 32 | 73 | 3.2 | 6.4 | 0.00 | 0.00 | 0.00 | 66 | 1018.6 |
| 20260831230320 | 32 | 85 | 3.2 | 9.7 | 0.00 | 0.00 | 0.00 | 64 | 1018.6 |
| 20260831225334 | 32 | 74 | 3.2 | 9.7 | 0.00 | 0.00 | 0.00 | 64 | 1018.4 |
| 20260831224314 | 33 | 90 | 3.2 | 9.7 | 0.00 | 0.00 | 0.00 | 63 | 1018.4 |
| 20260831223309 | 33 | 57 | 1.6 | 6.4 | 0.00 | 0.00 | 0.00 | 61 | 1018.4 |
| 20260831222329 | 33 | 49 | 3.2 | 6.4 | 0.00 | 0.00 | 0.00 | 61 | 1018.5 |
| 20260831221344 | 34 | 19 | 4.8 | 9.7 | 0.00 | 0.00 | 0.00 | 60 | 1018.5 |
| 20260831220325 | 35 | 46 | 4.8 | 9.7 | 0.00 | 0.00 | 0.00 | 59 | 1018.6 |
| 20260831215319 | 35 | 56 | 3.2 | 9.7 | 0.00 | 0.00 | 0.00 | 57 | 1018.7 |
| 20260831214316 | 36 | 182 | 3.2 | 4.8 | 0.00 | 0.00 | 0.00 | 56 | 1018.6 |
| 20260831213313 | 36 | 23 | 3.2 | 8.0 | 0.00 | 0.00 | 0.00 | 57 | 1018.6 |
| 20260831212337 | 36 | 44 | 4.8 | 8.0 | 0.00 | 0.00 | 0.00 | 56 | 1018.6 |
| 20260831211326 | 36 | 38 | 4.8 | 9.7 | 0.00 | 0.00 | 0.00 | 57 | 1018.7 |
| 20260831210327 | 36 | 63 | 3.2 | 11.3 | 0.00 | 0.00 | 0.00 | 56 | 1018.8 |
| 20260831205319 | 36 | 153 | 3.2 | 6.4 | 0.00 | 0.00 | 0.00 | 57 | 1018.7 |
| 20260831204312 | 36 | 336 | 3.2 | 8.0 | 0.00 | 0.00 | 0.00 | 55 | 1018.8 |
| 20260831203331 | 36 | 33 | 4.8 | 9.7 | 0.00 | 0.00 | 0.00 | 56 | 1019.0 |
| 20260831202330 | 36 | 16 | 4.8 | 8.0 | 0.00 | 0.00 | 0.00 | 55 | 1019.1 |
| 20260831201344 | 36 | 89 | 3.2 | 9.7 | 0.00 | 0.00 | 0.00 | 55 | 1019.2 |
| 20260831200343 | 36 | 63 | 3.2 | 11.3 | 0.00 | 0.00 | 0.00 | 57 | 1019.2 |
| 20260831195323 | 36 | 104 | 4.8 | 11.3 | 0.00 | 0.00 | 0.00 | 56 | 1019.3 |
| 20260831194315 | 36 | 104 | 4.8 | 11.3 | 0.00 | 0.00 | 0.00 | 59 | 1019.3 |
| 20260831193335 | 36 | 132 | 4.8 | 12.9 | 0.00 | 0.00 | 0.00 | 59 | 1019.4 |
| 20260831192328 | 36 | 167 | 4.8 | 12.9 | 0.00 | 0.00 | 0.00 | 58 | 1019.5 |
| 20260831191348 | 36 | 157 | 6.4 | 12.9 | 0.00 | 0.00 | 0.00 | 57 | 1019.6 |
| 20260831190316 | 36 | 58 | 8.0 | 12.9 | 0.00 | 0.00 | 0.00 | 61 | 1019.7 |
| 20260831185310 | 35 | 65 | 6.4 | 12.9 | 0.00 | 0.00 | 0.00 | 61 | 1019.8 |
| 20260831184310 | 35 | 88 | 4.8 | 11.3 | 0.00 | 0.00 | 0.00 | 60 | 1019.8 |
| 20260831183324 | 35 | 97 | 4.8 | 16.1 | 0.00 | 0.00 | 0.00 | 61 | 1019.9 |
| 20260831182323 | 35 | 163 | 4.8 | 12.9 | 0.00 | 0.00 | 0.00 | 61 | 1020.1 |
| 20260831181314 | 35 | 113 | 4.8 | 11.3 | 0.00 | 0.00 | 0.00 | 63 | 1020.1 |
| 20260831180333 | 35 | 301 | 4.8 | 9.7 | 0.00 | 0.00 | 0.00 | 62 | 1020.4 |
| 20260831175309 | 35 | 146 | 6.4 | 8.0 | 0.00 | 0.00 | 0.00 | 62 | 1020.4 |
| 20260831174321 | 35 | 173 | 3.2 | 8.0 | 0.00 | 0.00 | 0.00 | 63 | 1020.4 |
| 20260831173318 | 35 | 355 | 3.2 | 8.0 | 0.00 | 0.00 | 0.00 | 67 | 1020.5 |
| 20260831172335 | 35 | 327 | 4.8 | 9.7 | 0.00 | 0.00 | 0.00 | 63 | 1020.5 |
| 20260831171326 | 34 | 42 | 3.2 | 8.0 | 0.00 | 0.00 | 0.00 | 63 | 1020.6 |
| 20260831170345 | 34 | 328 | 1.6 | 9.7 | 0.00 | 0.00 | 0.00 | 66 | 1020.7 |
| 20260831165316 | 33 | 46 | 8.0 | 11.3 | 0.00 | 0.00 | 0.00 | 65 | 1020.8 |
| 20260831164315 | 33 | 278 | 3.2 | 6.4 | 0.00 | 0.00 | 0.00 | 67 | 1020.7 |
| 20260831163315 | 33 | 281 | 4.8 | 9.7 | 0.00 | 0.00 | 0.00 | 67 | 1020.8 |
| 20260831162326 | 33 | 66 | 3.2 | 8.0 | 0.00 | 0.00 | 0.00 | 66 | 1021.0 |
| 20260831161324 | 33 | 9 | 6.4 | 9.7 | 0.00 | 0.00 | 0.00 | 66 | 1021.1 |
| 20260831160314 | 32 | 328 | 4.8 | 8.0 | 0.00 | 0.00 | 0.00 | 68 | 1021.2 |
| 20260831155330 | 32 | 258 | 1.6 | 8.0 | 0.00 | 0.00 | 0.00 | 68 | 1021.2 |
| 20260831154324 | 32 | 334 | 4.8 | 6.4 | 0.00 | 0.00 | 0.00 | 70 | 1021.4 |
| 20260831153319 | 31 | 334 | 1.6 | 8.0 | 0.00 | 0.00 | 0.00 | 70 | 1021.4 |
| 20260831152342 | 32 | 283 | 3.2 | 9.7 | 0.00 | 0.00 | 0.00 | 69 | 1021.3 |
| 20260831151318 | 31 | 345 | 3.2 | 9.7 | 0.00 | 0.00 | 0.00 | 72 | 1021.4 |
| 20260831150330 | 31 | 269 | 3.2 | 11.3 | 0.00 | 0.00 | 0.00 | 70 | 1021.5 |
| 20260831145326 | 31 | 360 | 3.2 | 6.4 | 0.00 | 0.00 | 0.00 | 74 | 1021.3 |
| 20260831144314 | 31 | 95 | 3.2 | 6.4 | 0.00 | 0.00 | 0.00 | 74 | 1021.2 |
| 20260831142353 | 30 | 11 | 3.2 | 8.0 | 0.00 | 0.00 | 0.00 | 78 | 1021.1 |
| 20260831141319 | 30 | 318 | 3.2 | 8.0 | 0.00 | 0.00 | 0.00 | 79 | 1021.1 |
| 20260831140315 | 29 | 248 | 4.8 | 11.3 | 0.00 | 0.00 | 0.00 | 81 | 1021.0 |
| 20260831135324 | 28 | 244 | 3.2 | 9.7 | 0.00 | 0.00 | 0.00 | 82 | 1021.0 |
| 20260831134321 | 28 | 279 | 4.8 | 8.0 | 0.00 | 0.00 | 0.00 | 84 | 1021.0 |
| 20260831133309 | 27 | 338 | 4.8 | 8.0 | 0.00 | 0.00 | 0.00 | 86 | 1020.8 |
| 20260831132327 | 27 | 329 | 3.2 | 8.0 | 0.00 | 0.00 | 0.00 | 89 | 1020.9 |
| 20260831131317 | 27 | 347 | 3.2 | 11.3 | 0.00 | 0.00 | 0.00 | 90 | 1020.9 |
| 20260831130333 | 26 | 292 | 3.2 | 9.7 | 0.00 | 0.00 | 0.00 | 91 | 1020.9 |
| 20260831125321 | 26 | 273 | 3.2 | 8.0 | 0.00 | 0.00 | 0.00 | 93 | 1020.9 |
| 20260831124319 | 25 | 302 | 4.8 | 6.4 | 0.00 | 0.00 | 0.00 | 94 | 1020.9 |
| 20260831123315 | 25 | 277 | 3.2 | 6.4 | 0.00 | 0.00 | 0.00 | 95 | 1021.0 |
| 20260831122319 | 25 | 325 | 4.8 | 6.4 | 0.00 | 0.00 | 0.00 | 96 | 1020.9 |
| 20260831121317 | 24 | 268 | 6.4 | 11.3 | 0.00 | 0.00 | 0.00 | 96 | 1020.9 |
| 20260831120314 | 24 | 278 | 4.8 | 6.4 | 0.00 | 0.00 | 0.00 | 96 | 1020.8 |
| 20260831115317 | 24 | 277 | 3.2 | 6.4 | 0.00 | 0.00 | 0.00 | 96 | 1020.8 |
| 20260831114313 | 23 | 270 | 3.2 | 9.7 | 0.00 | 0.00 | 0.00 | 96 | 1020.8 |
| 20260831113309 | 23 | 271 | 3.2 | 6.4 | 0.00 | 0.00 | 0.00 | 95 | 1020.8 |
| 20260831112312 | 23 | 310 | 3.2 | 8.0 | 0.00 | 0.00 | 0.00 | 95 | 1020.8 |
| 20260831111309 | 23 | 283 | 4.8 | 9.7 | 0.00 | 0.00 | 0.00 | 95 | 1020.9 |
| 20260831110334 | 23 | 283 | 4.8 | 9.7 | 0.00 | 0.00 | 0.00 | 95 | 1020.7 |
| 20260831105310 | 23 | 244 | 3.2 | 6.4 | 0.00 | 0.00 | 0.00 | 95 | 1020.6 |
| 20260831104326 | 23 | 246 | 4.8 | 6.4 | 0.00 | 0.00 | 0.00 | 95 | 1020.6 |
| 20260831103324 | 23 | 288 | 3.2 | 6.4 | 0.00 | 0.00 | 0.00 | 95 | 1020.5 |
| 20260831102318 | 23 | 317 | 1.6 | 3.2 | 0.00 | 0.00 | 0.00 | 95 | 1020.5 |
| 20260831101341 | 23 | 329 | 1.6 | 3.2 | 0.00 | 0.00 | 0.00 | 95 | 1020.4 |
| 20260831100316 | 23 | 124 | 0.0 | 4.8 | 0.00 | 0.00 | 0.00 | 94 | 1020.4 |
| 20260831095310 | 23 | 180 | 0.0 | 3.2 | 0.00 | 0.00 | 0.00 | 94 | 1020.4 |
| 20260831094319 | 23 | 248 | 0.0 | 3.2 | 0.00 | 0.00 | 0.00 | 95 | 1020.4 |
| 20260831093316 | 23 | 281 | 1.6 | 4.8 | 0.00 | 0.00 | 0.00 | 95 | 1020.4 |
| 20260831092321 | 23 | 267 | 1.6 | 4.8 | 0.00 | 0.00 | 0.00 | 95 | 1020.4 |
| 20260831091316 | 23 | 275 | 1.6 | 4.8 | 0.00 | 0.00 | 0.00 | 95 | 1020.4 |
| 20260831090311 | 23 | 279 | 1.6 | 3.2 | 0.00 | 0.00 | 0.00 | 95 | 1020.3 |
| 20260831085313 | 23 | 238 | 1.6 | 3.2 | 0.00 | 0.00 | 0.00 | 95 | 1020.4 |
| 20260831084308 | 23 | 278 | 1.6 | 3.2 | 0.00 | 0.00 | 0.00 | 95 | 1020.4 |
| 20260831083331 | 23 | 301 | 1.6 | 3.2 | 0.00 | 0.00 | 0.00 | 95 | 1020.6 |
| 20260831082328 | 23 | 301 | 1.6 | 3.2 | 0.00 | 0.00 | 0.00 | 95 | 1020.6 |
| 20260831081323 | 23 | 301 | 0.0 | 3.2 | 0.00 | 0.00 | 0.00 | 94 | 1020.7 |
| 20260831080326 | 23 | 302 | 1.6 | 3.2 | 0.00 | 0.00 | 0.00 | 94 | 1020.6 |
| 20260831075321 | 24 | 302 | 1.6 | 3.2 | 0.00 | 0.00 | 0.00 | 94 | 1020.5 |
| 20260831074345 | 24 | 213 | 1.6 | 3.2 | 0.00 | 0.00 | 0.00 | 94 | 1020.5 |
| 20260831073320 | 24 | 196 | 0.0 | 1.6 | 0.00 | 0.00 | 0.00 | 94 | 1020.5 |
| 20260831072316 | 24 | 211 | 0.0 | 3.2 | 0.00 | 0.00 | 0.00 | 94 | 1020.5 |
| 20260831071341 | 24 | 211 | 1.6 | 3.2 | 0.00 | 0.00 | 0.00 | 94 | 1020.5 |
| 20260831070324 | 24 | 211 | 1.6 | 3.2 | 0.00 | 0.00 | 0.00 | 94 | 1020.5 |
| 20260831065317 | 24 | 63 | 1.6 | 4.8 | 0.00 | 0.00 | 0.00 | 94 | 1020.6 |
| 20260831064311 | 24 | 318 | 1.6 | 3.2 | 0.00 | 0.00 | 0.00 | 94 | 1020.8 |
| 20260831063315 | 25 | 240 | 1.6 | 4.8 | 0.00 | 0.00 | 0.00 | 94 | 1020.7 |
| 20260831062309 | 25 | 210 | 3.2 | 6.4 | 0.00 | 0.00 | 0.00 | 94 | 1020.6 |
| 20260831061329 | 25 | 195 | 3.2 | 4.8 | 0.00 | 0.00 | 0.00 | 94 | 1020.8 |
| 20260831060323 | 24 | 235 | 3.2 | 6.4 | 0.00 | 0.00 | 0.00 | 94 | 1020.8 |
| 20260831055318 | 25 | 178 | 3.2 | 8.0 | 0.00 | 0.00 | 0.00 | 94 | 1021.0 |
| 20260831054318 | 25 | 141 | 4.8 | 9.7 | 0.00 | 0.00 | 0.00 | 94 | 1021.0 |
| 20260831053309 | 25 | 182 | 4.8 | 6.4 | 0.00 | 0.00 | 0.00 | 93 | 1021.1 |
| 20260831052333 | 25 | 175 | 3.2 | 8.0 | 0.00 | 0.00 | 0.00 | 93 | 1021.1 |
| 20260831051326 | 25 | 62 | 1.6 | 4.8 | 0.00 | 0.00 | 0.00 | 93 | 1021.2 |
| 20260831050329 | 25 | 92 | 1.6 | 4.8 | 0.00 | 0.00 | 0.00 | 92 | 1021.2 |
| 20260831045324 | 25 | 96 | 1.6 | 3.2 | 0.00 | 0.00 | 0.00 | 92 | 1021.2 |
| 20260831044318 | 25 | 180 | 3.2 | 8.0 | 0.00 | 0.00 | 0.00 | 92 | 1021.1 |
| 20260831043325 | 25 | 167 | 1.6 | 6.4 | 0.00 | 0.00 | 0.00 | 92 | 1021.2 |
| 20260831042317 | 25 | 180 | 3.2 | 4.8 | 0.00 | 0.00 | 0.00 | 92 | 1021.1 |
| 20260831041312 | 25 | 167 | 0.0 | 3.2 | 0.00 | 0.00 | 0.00 | 92 | 1021.2 |
| 20260831040312 | 25 | 146 | 3.2 | 8.0 | 0.00 | 0.00 | 0.00 | 91 | 1021.2 |
| 20260831035326 | 25 | 186 | 0.0 | 4.8 | 0.00 | 0.00 | 0.00 | 90 | 1021.2 |
| 20260831034328 | 25 | 267 | 0.0 | 1.6 | 0.00 | 0.00 | 0.00 | 90 | 1021.3 |
| 20260831033325 | 26 | 266 | 0.0 | 3.2 | 0.00 | 0.00 | 0.00 | 90 | 1021.1 |
| 20260831032323 | 26 | 258 | 1.6 | 3.2 | 0.00 | 0.00 | 0.00 | 90 | 1021.1 |
| 20260831031323 | 26 | 265 | 3.2 | 3.2 | 0.00 | 0.00 | 0.00 | 90 | 1021.1 |
| 20260831030319 | 26 | 254 | 0.0 | 3.2 | 0.00 | 0.00 | 0.00 | 90 | 1021.2 |
| 20260831025323 | 26 | 201 | 1.6 | 1.6 | 0.00 | 0.00 | 0.00 | 89 | 1021.1 |
| 20260831024318 | 26 | 201 | 0.0 | 1.6 | 0.00 | 0.00 | 0.00 | 89 | 1021.1 |
| 20260831023317 | 26 | 201 | 0.0 | 0.0 | 0.00 | 0.00 | 0.00 | 89 | 1021.1 |
| 20260831022340 | 26 | 201 | 0.0 | 4.8 | 0.00 | 0.00 | 0.00 | 89 | 1021.0 |
| 20260831021323 | 26 | 187 | 3.2 | 4.8 | 0.00 | 0.00 | 0.00 | 88 | 1021.0 |
| 20260831020319 | 26 | 175 | 1.6 | 4.8 | 0.00 | 0.00 | 0.00 | 88 | 1021.0 |
| 20260831015344 | 26 | 204 | 3.2 | 4.8 | 0.00 | 0.00 | 0.00 | 88 | 1021.0 |
| 20260831014323 | 26 | 140 | 3.2 | 8.0 | 0.00 | 0.00 | 0.00 | 88 | 1021.0 |
| 20260831013348 | 27 | 80 | 1.6 | 4.8 | 0.00 | 0.00 | 0.00 | 87 | 1020.9 |
| 20260831012323 | 27 | 169 | 3.2 | 9.7 | 0.00 | 0.00 | 0.00 | 86 | 1020.9 |
| 20260831011321 | 27 | 136 | 3.2 | 4.8 | 0.00 | 0.00 | 0.00 | 86 | 1020.8 |
| 20260831010323 | 27 | 32 | 1.6 | 1.6 | 0.00 | 0.00 | 0.00 | 84 | 1020.7 |
| 20260831005319 | 27 | 38 | 0.0 | 1.6 | 0.00 | 0.00 | 0.00 | 84 | 1020.7 |
| 20260831004325 | 27 | 348 | 0.0 | 1.6 | 0.00 | 0.00 | 0.00 | 84 | 1020.7 |
| 20260831003342 | 27 | 348 | 1.6 | 3.2 | 0.00 | 0.00 | 0.00 | 84 | 1020.7 |
| 20260831002345 | 27 | 348 | 1.6 | 3.2 | 0.00 | 0.00 | 0.00 | 83 | 1020.7 |
| 20260831001321 | 28 | 348 | 1.6 | 3.2 | 0.00 | 0.00 | 0.00 | 83 | 1020.7 |
| 20260831000325 | 28 | 338 | 0.0 | 1.6 | 0.00 | 0.00 | 0.00 | 83 | 1020.7 |
| 20260830235322 | 28 | 339 | 1.6 | 3.2 | 0.00 | 0.00 | 0.00 | 82 | 1020.6 |